Mumbai, India

3:10 PM IST on March 24, 2017 (GMT +0530)
Chhatrapati Shivaji International

Weather History for VABB - August, 2013

Change the Weather History Date:

Monday, August 26, 2013

  Actual Average Record
Temperature  
Mean Temperature 78 °F -  
Max Temperature 82 °F 85 °F 89 °F (1996)
Min Temperature 74 °F 77 °F 74 °F (2012)
Cooling Degree Days 13    
Growing Degree Days 28 (Base 50)    
Moisture  
Dew Point 76 °F    
Average Humidity 87    
Maximum Humidity 94    
Minimum Humidity 76    
Precipitation  
Precipitation 0.16 in - - ()
Sea Level Pressure  
Sea Level Pressure 29.71 in    
Wind  
Wind Speed 5 mph ()    
Max Wind Speed 13 mph    
Max Gust Speed 23 mph    
Visibility 1.7 miles    
Events Rain    
Averages and records for this station are not official NWS values.
T = Trace of Precipitation, MM = Missing Value Source: Averaged Metar Reports

Daily Weather History Graph

Daily Weather History Graph

Search for Another Location

Airport or City:

Trip Planner

Search our weather history database for the weather conditions in past years. The results will help you decide how hot, cold, wet, or windy it might be!

Date:

Astronomy

Aug. 26, 2013 Rise Set
Actual Time 6:22 AM IST 6:58 PM IST
Civil Twilight 5:59 AM IST 7:20 PM IST
Nautical Twilight 5:33 AM IST 7:46 PM IST
Astronomical Twilight 5:07 AM IST 8:13 PM IST
Moon 10:45 PM IST (8/26) 11:04 AM IST (8/26)
Length of Visible Light 13h 20m
Length of Day
12h 36m
Waning Gibbous, 70% of the Moon is Illuminated
Aug 26
Waning Gibbous
Aug 28
Last Quarter
Sep 5
New
Sep 12
First Quarter
Sep 19
Full

Hourly Weather History & Observations

Time (IST) Temp. Heat Index Dew Point Humidity Pressure Visibility Wind Dir Wind Speed Gust Speed Precip Events Conditions
12:10 AM 80.6 °F 85.4 °F 73.4 °F 79% 29.74 in 1.9 mi SSW 4.6 mph - N/A   Haze
12:40 AM 80.6 °F 85.4 °F 73.4 °F 79% 29.74 in 1.9 mi SSW 3.5 mph - N/A   Haze
1:10 AM 80.6 °F 86.2 °F 75.2 °F 84% 29.71 in 1.9 mi SSW 3.5 mph - N/A   Haze
1:40 AM 78.8 °F - 75.2 °F 89% 29.71 in 1.9 mi SSW 3.5 mph - N/A   Haze
2:10 AM 78.8 °F - 75.2 °F 89% 29.71 in 1.9 mi SW 4.6 mph - N/A   Haze
2:40 AM 78.8 °F - 75.2 °F 89% 29.71 in 1.9 mi SSW 3.5 mph - N/A   Haze
3:10 AM 80.6 °F 86.2 °F 75.2 °F 84% 29.68 in 1.9 mi West 8.1 mph - N/A   Haze
3:40 AM 78.8 °F - 75.2 °F 89% 29.68 in 1.9 mi Calm Calm - N/A   Haze
4:10 AM 78.8 °F - 75.2 °F 89% 29.68 in 1.9 mi Calm Calm - N/A   Haze
4:40 AM 78.8 °F - 75.2 °F 89% 29.68 in 1.9 mi Calm Calm - N/A   Haze
5:10 AM 78.8 °F - 75.2 °F 89% 29.68 in 1.9 mi Calm Calm - N/A   Haze
5:30 AM 78 °F - 76 °F 91% 29.70 in 1 mi Calm Calm - -   Haze
5:40 AM 78.8 °F - 75.2 °F 89% 29.71 in 1.6 mi Calm Calm - N/A   Haze
6:10 AM 78.8 °F - 77.0 °F 94% 29.71 in 1.6 mi Calm Calm - N/A   Haze
6:40 AM 78.8 °F - 77.0 °F 94% 29.71 in 1.6 mi South 5.8 mph - N/A   Mostly Cloudy
7:10 AM 78.8 °F - 77.0 °F 94% 29.71 in 1.6 mi SSW 5.8 mph - N/A   Haze
7:40 AM 78.8 °F - 77.0 °F 94% 29.71 in 1.6 mi SE 3.5 mph - N/A   Haze
8:10 AM 80.6 °F 87.1 °F 77.0 °F 89% 29.74 in 1.1 mi SE 4.6 mph - N/A Rain Light Rain
8:30 AM 80 °F - 78 °F 93% 29.74 in 1 mi West 4.6 mph - -   Haze
8:40 AM 80.6 °F 87.1 °F 77.0 °F 89% 29.74 in 1.4 mi SSW 4.6 mph - N/A   Mostly Cloudy
9:40 AM 82.4 °F 90.9 °F 77.0 °F 84% 29.74 in 1.9 mi WSW 8.1 mph - N/A   Haze
11:40 AM 80.6 °F 86.2 °F 75.2 °F 84% 29.74 in 1.2 mi WSW 10.4 mph - N/A Rain Light Rain
12:10 PM 80.6 °F 87.1 °F 77.0 °F 89% 29.74 in 1.3 mi WSW 8.1 mph - N/A Rain Light Rain
1:10 PM 80.6 °F 87.1 °F 77.0 °F 89% 29.71 in 1.6 mi West 6.9 mph - N/A   Overcast
2:10 PM 77.0 °F - 73.4 °F 89% 29.71 in 1.3 mi West 11.5 mph 23.0 mph N/A Rain Light Rain Showers
2:30 PM 79 °F - 75 °F 84% 29.71 in 1 mi NW 4.6 mph - - Rain Light Rain
2:40 PM 78.8 °F - 75.2 °F 89% 29.71 in 1.3 mi SSW 6.9 mph - N/A   Mostly Cloudy
3:10 PM 80.6 °F 87.1 °F 77.0 °F 89% 29.68 in 1.6 mi SSW 4.6 mph - N/A   Mostly Cloudy
3:40 PM 82.4 °F 90.9 °F 77.0 °F 84% 29.68 in 1.6 mi WSW 11.5 mph - N/A   Haze
4:40 PM 80.6 °F 87.1 °F 77.0 °F 89% 29.68 in 1.9 mi West 8.1 mph 19.6 mph N/A   Haze
5:10 PM 82.4 °F 89.5 °F 75.2 °F 79% 29.68 in 2.2 mi WSW 11.5 mph - N/A   Haze
5:30 PM 82 °F - 76 °F 76% 29.69 in 1 mi West 5.8 mph - -   Haze
5:40 PM 82.4 °F 90.9 °F 77.0 °F 84% 29.68 in 2.2 mi West 12.7 mph - N/A   Haze
6:10 PM 80.6 °F 87.1 °F 77.0 °F 89% 29.68 in 2.2 mi WSW 11.5 mph - N/A   Haze
6:40 PM 80.6 °F 85.4 °F 73.4 °F 79% 29.68 in 2.2 mi WSW 10.4 mph - N/A   Haze
7:10 PM 80.6 °F 85.4 °F 73.4 °F 79% 29.71 in 2.2 mi WSW 8.1 mph - N/A   Haze
7:40 PM 80.6 °F 86.2 °F 75.2 °F 84% 29.71 in 2.2 mi WSW 6.9 mph - N/A   Haze
8:30 PM 81 °F - 76 °F 80% 29.73 in 1 mi West 4.6 mph - -   Haze
8:40 PM 80.6 °F 87.1 °F 77.0 °F 89% 29.74 in 1.9 mi SW 4.6 mph - N/A   Haze
9:10 PM 80.6 °F 87.1 °F 77.0 °F 89% 29.74 in 1.9 mi WSW 8.1 mph - N/A   Haze
9:40 PM 80.6 °F 87.1 °F 77.0 °F 89% 29.74 in 1.9 mi WSW 8.1 mph - N/A   Haze
10:10 PM 80.6 °F 87.1 °F 77.0 °F 89% 29.74 in 1.9 mi SW 6.9 mph - N/A   Haze
10:40 PM 80.6 °F 87.1 °F 77.0 °F 89% 29.74 in 1.9 mi SW 6.9 mph - N/A   Haze
11:10 PM 80.6 °F 87.1 °F 77.0 °F 89% 29.74 in 1.9 mi SW 5.8 mph - N/A   Haze
11:30 PM 81 °F - 76 °F 82% 29.76 in 1 mi WSW 4.6 mph - -   Haze
11:40 PM 80.6 °F 87.1 °F 77.0 °F 89% 29.74 in 1.9 mi SW 5.8 mph - N/A   Haze